K4AXV-13 Weather Reports


time (UTC)temp
C
wind
direction
speed
KPH
gust
KPH
rain 1hr
cm
rain 24hr
cm
rain mn
cm
humidity
%
barometer
mb
20260506032944 15 13 0.0 0.0 0.00 0.00 0.00
20260506032442 16 13 0.0 0.0 0.00 0.00 0.00
20260506031943 16 13 0.0 0.0 0.00 0.00 0.00
20260506031442 16 13 0.0 0.0 0.00 0.00 0.00
20260506030943 16 13 0.0 0.0 0.00 0.00 0.00
20260506030441 16 13 0.0 0.0 0.00 0.00 0.00
20260506025942 16 13 0.0 0.0 0.00 0.00 0.00
20260506025440 16 13 0.0 0.0 0.00 0.00 0.00
20260506024941 16 13 0.0 0.0 0.00 0.00 0.00
20260506024439 17 13 0.0 0.0 0.00 0.00 0.00
20260506023941 17 13 0.0 0.0 0.00 0.00 0.00
20260506023439 17 13 0.0 0.0 0.00 0.00 0.00
20260506022940 17 13 0.0 0.0 0.00 0.00 0.00
20260506022438 17 13 0.0 0.0 0.00 0.00 0.00
20260506021939 17 13 0.0 0.0 0.00 0.00 0.00
20260506021437 17 13 0.0 0.0 0.00 0.00 0.00
20260506020938 17 13 0.0 0.0 0.00 0.00 0.00
20260506020436 17 13 0.0 0.0 0.00 0.00 0.00
20260506015433 18 13 0.0 0.0 0.00 0.00 0.00
20260506014934 18 13 0.0 0.0 0.00 0.00 0.00
20260506014432 18 13 0.0 0.0 0.00 0.00 0.00
20260506013934 18 13 0.0 0.0 0.00 0.00 0.00
20260506012933 18 13 0.0 0.0 0.00 0.00 0.00
20260506012431 18 13 0.0 0.0 0.00 0.00 0.00
20260506012118 18 13 0.0 0.0 0.00 0.00 0.00
20260506011932 18 13 0.0 0.0 0.00 0.00 0.00
20260506011430 18 13 0.0 0.0 0.00 0.00 0.00
20260506010931 19 13 0.0 0.0 0.00 0.00 0.00
20260506010525 19 13 0.0 0.0 0.00 0.00 0.00
20260506010430 19 13 0.0 0.0 0.00 0.00 0.00
20260506005931 19 13 0.0 0.0 0.00 0.00 0.00
20260506005538 20 13 0.0 0.0 0.00 0.00 0.00
20260506005429 20 13 0.0 0.0 0.00 0.00 0.00
20260506004930 20 13 0.0 0.0 0.00 0.00 0.00
20260506003930 20 13 0.0 0.0 0.00 0.00 0.00
20260506003428 20 13 0.0 0.0 0.00 0.00 0.00
20260506002929 20 13 0.0 0.0 0.00 0.00 0.00
20260506002427 20 13 0.0 0.0 0.00 0.00 0.00
20260506001928 20 13 0.0 0.0 0.00 0.00 0.00
20260506001427 21 13 0.0 0.0 0.00 0.00 0.00
20260506000928 21 42 0.0 0.0 0.00 0.00 0.00
20260506000426 21 226 0.0 0.0 0.00 0.00 0.00
20260505235927 21 187 4.8 0.0 0.00 0.00 0.00
20260505235558 21 343 0.0 0.0 0.00 0.00 0.00
20260505235425 21 343 0.0 0.0 0.00 0.00 0.00
20260505234927 21 343 3.2 0.0 0.00 0.00 0.00
20260505234425 21 13 0.0 3.2 0.00 0.00 0.00
20260505234128 21 122 3.2 6.4 0.00 0.00 0.00
20260505233926 21 122 3.2 6.4 0.00 0.00 0.00
20260505233424 21 314 4.8 4.8 0.00 0.00 0.00
20260505232424 21 283 1.6 0.0 0.00 0.00 0.00
20260505224421 22 11 1.6 4.8 0.00 0.00 0.00
20260505223420 22 89 1.6 6.4 0.00 0.00 0.00
20260505221921 22 226 4.8 0.0 0.00 0.00 0.00
20260505220419 23 309 1.6 4.8 0.00 0.00 0.00
20260505213917 23 167 4.8 4.8 0.00 0.00 0.00
20260505212415 24 143 4.8 1.6 0.00 0.00 0.00
20260505202913 24 118 11.3 8.0 0.00 0.00 0.00
20260505201913 25 301 4.8 12.9 0.00 0.00 0.00
20260505201411 25 98 6.4 4.8 0.00 0.00 0.00
20260505152855 25 0 1.6 3.2 0.00 0.00 0.00
20260505152353 23 276 1.6 6.4 0.00 0.00 0.00
20260505140349 21 89 3.2 3.2 0.00 0.00 0.00
20260505125034 18 321 1.6 0.0 0.00 0.00 0.00
20260505124844 18 321 1.6 0.0 0.00 0.00 0.00
20260505124342 17 269 0.0 0.0 0.00 0.00 0.00
20260505123933 17 7 0.0 0.0 0.00 0.00 0.00
20260505123844 17 7 0.0 0.0 0.00 0.00 0.00
20260505123342 17 7 0.0 0.0 0.00 0.00 0.00
20260505122341 17 7 0.0 0.0 0.00 0.00 0.00
20260505121842 17 7 0.0 0.0 0.00 0.00 0.00
20260505120842 15 7 0.0 0.0 0.00 0.00 0.00
20260505120340 15 7 0.0 0.0 0.00 0.00 0.00
20260505115841 13 7 0.0 0.0 0.00 0.00 0.00
20260505115339 13 7 0.0 0.0 0.00 0.00 0.00
20260505114840 13 7 0.0 0.0 0.00 0.00 0.00
20260505114338 13 7 0.0 0.0 0.00 0.00 0.00
20260505113337 12 7 0.0 0.0 0.00 0.00 0.00
20260505112838 12 7 0.0 0.0 0.00 0.00 0.00
20260505112337 12 7 0.0 0.0 0.00 0.00 0.00
20260505111838 12 7 0.0 0.0 0.00 0.00 0.00
20260505111408 12 7 0.0 0.0 0.00 0.00 0.00
20260505111336 12 7 0.0 0.0 0.00 0.00 0.00
20260505111012 12 7 0.0 0.0 0.00 0.00 0.00
20260505110836 12 7 0.0 0.0 0.00 0.00 0.00
20260505110335 12 7 0.0 0.0 0.00 0.00 0.00
20260505101834 12 7 0.0 0.0 0.00 0.00 0.00
20260505101333 11 7 0.0 0.0 0.00 0.00 0.00
20260505101016 12 7 0.0 0.0 0.00 0.00 0.00
20260505100834 12 7 0.0 0.0 0.00 0.00 0.00
20260505100332 11 7 0.0 0.0 0.00 0.00 0.00
20260505095833 11 7 0.0 0.0 0.00 0.00 0.00
20260505095446 11 7 0.0 0.0 0.00 0.00 0.00
20260505095332 11 7 0.0 0.0 0.00 0.00 0.00
20260505094933 11 7 0.0 0.0 0.00 0.00 0.00
20260505094833 11 7 0.0 0.0 0.00 0.00 0.00
20260505094331 11 7 0.0 0.0 0.00 0.00 0.00
20260505093933 11 7 0.0 0.0 0.00 0.00 0.00
20260505093833 11 7 0.0 0.0 0.00 0.00 0.00
20260505093331 12 7 0.0 0.0 0.00 0.00 0.00
20260505092832 11 7 0.0 0.0 0.00 0.00 0.00
20260505092331 12 7 0.0 0.0 0.00 0.00 0.00
20260505091833 12 7 0.0 0.0 0.00 0.00 0.00
20260505091330 11 7 0.0 0.0 0.00 0.00 0.00
20260505090832 12 7 0.0 0.0 0.00 0.00 0.00
20260505090417 12 7 0.0 0.0 0.00 0.00 0.00
20260505090330 12 7 0.0 0.0 0.00 0.00 0.00
20260505085831 12 7 0.0 0.0 0.00 0.00 0.00
20260505085452 12 7 0.0 0.0 0.00 0.00 0.00
20260505085330 12 7 0.0 0.0 0.00 0.00 0.00
20260505085002 12 7 0.0 0.0 0.00 0.00 0.00
20260505084831 12 7 0.0 0.0 0.00 0.00 0.00
20260505083830 12 7 0.0 0.0 0.00 0.00 0.00
20260505083329 12 7 0.0 0.0 0.00 0.00 0.00
20260505082901 12 7 0.0 0.0 0.00 0.00 0.00
20260505082830 12 7 0.0 0.0 0.00 0.00 0.00
20260505082329 12 7 0.0 0.0 0.00 0.00 0.00
20260505081922 12 7 0.0 0.0 0.00 0.00 0.00
20260505081830 12 7 0.0 0.0 0.00 0.00 0.00
20260505081518 12 7 0.0 0.0 0.00 0.00 0.00
20260505081328 12 7 0.0 0.0 0.00 0.00 0.00
20260505080830 12 7 0.0 0.0 0.00 0.00 0.00
20260505080328 12 7 0.0 0.0 0.00 0.00 0.00
20260505075901 12 7 0.0 0.0 0.00 0.00 0.00
20260505075829 12 7 0.0 0.0 0.00 0.00 0.00
20260505075532 12 7 0.0 0.0 0.00 0.00 0.00
20260505075328 12 7 0.0 0.0 0.00 0.00 0.00
20260505074829 12 7 0.0 0.0 0.00 0.00 0.00
20260505074005 12 7 0.0 0.0 0.00 0.00 0.00
20260505073828 12 7 0.0 0.0 0.00 0.00 0.00
20260505073447 12 7 0.0 0.0 0.00 0.00 0.00
20260505073327 12 7 0.0 0.0 0.00 0.00 0.00
20260505072901 12 7 0.0 0.0 0.00 0.00 0.00
20260505072828 12 7 0.0 0.0 0.00 0.00 0.00
20260505071827 12 7 0.0 0.0 0.00 0.00 0.00
20260505070827 12 7 0.0 0.0 0.00 0.00 0.00
20260505070450 12 7 0.0 0.0 0.00 0.00 0.00
20260505070325 12 7 0.0 0.0 0.00 0.00 0.00
20260505065826 12 7 0.0 0.0 0.00 0.00 0.00
20260505065402 12 7 0.0 0.0 0.00 0.00 0.00
20260505065325 12 7 0.0 0.0 0.00 0.00 0.00
20260505064826 12 7 0.0 0.0 0.00 0.00 0.00
20260505063934 12 7 0.0 0.0 0.00 0.00 0.00
20260505063825 12 7 0.0 0.0 0.00 0.00 0.00
20260505063323 12 7 0.0 0.0 0.00 0.00 0.00
20260505062901 12 7 0.0 0.0 0.00 0.00 0.00
20260505062824 12 7 0.0 0.0 0.00 0.00 0.00
20260505062320 12 7 0.0 0.0 0.00 0.00 0.00
20260505062005 12 7 0.0 0.0 0.00 0.00 0.00
20260505061821 12 7 0.0 0.0 0.00 0.00 0.00
20260505060819 12 7 0.0 0.0 0.00 0.00 0.00
20260505060317 12 7 0.0 0.0 0.00 0.00 0.00
20260505055819 12 7 0.0 0.0 0.00 0.00 0.00
20260505055417 12 7 0.0 0.0 0.00 0.00 0.00
20260505055317 12 7 0.0 0.0 0.00 0.00 0.00
20260505054818 13 7 0.0 0.0 0.00 0.00 0.00
20260505053818 12 7 0.0 0.0 0.00 0.00 0.00
20260505053356 12 7 0.0 0.0 0.00 0.00 0.00
20260505053316 12 7 0.0 0.0 0.00 0.00 0.00
20260505052817 12 7 0.0 0.0 0.00 0.00 0.00
20260505052442 13 7 0.0 0.0 0.00 0.00 0.00
20260505052316 13 7 0.0 0.0 0.00 0.00 0.00
20260505051817 13 7 0.0 0.0 0.00 0.00 0.00
20260505051532 13 7 0.0 0.0 0.00 0.00 0.00
20260505051315 13 7 0.0 0.0 0.00 0.00 0.00
20260505050816 13 7 0.0 0.0 0.00 0.00 0.00
20260505041310 13 7 0.0 0.0 0.00 0.00 0.00
20260505040811 13 7 0.0 0.0 0.00 0.00 0.00
20260505040443 13 7 0.0 0.0 0.00 0.00 0.00
20260505040310 13 7 0.0 0.0 0.00 0.00 0.00
20260505035811 13 7 0.0 0.0 0.00 0.00 0.00
20260505035309 13 7 0.0 0.0 0.00 0.00 0.00
20260505034533 14 7 0.0 0.0 0.00 0.00 0.00
20260505034307 14 7 0.0 0.0 0.00 0.00 0.00
20260505033808 14 7 0.0 0.0 0.00 0.00 0.00
20260505033532 14 7 0.0 0.0 0.00 0.00 0.00
20260505033306 14 7 0.0 0.0 0.00 0.00 0.00